Regional Weather Roundup
Issued by NWS Lake Charles, LA

Home | Current Version | Previous Version | Text Only | Print | Product List | Glossary On
Versions: 1 2 3 4 5 6 7 8 9 10 11 12 13 14 15 16 17 18 19 20 21 22 23 24 25 26 27 28 29 30 31 32 33 34 35 36 37 38 39 40 41 42 43 44 45 46 47 48 49 50
902
ASUS44 KLCH 210510
RWRLCH
REGIONAL WEATHER ROUNDUP
NATIONAL WEATHER SERVICE LAKE CHARLES LA
1200 AM CDT SAT OCT 21 2017

Note: "fair" indicates few or no clouds below 12,000 feet with no
significant weather and/or obstructions to visibility.


ACROSS SOUTHEAST TEXAS

CITY           SKY/WX    TMP DP  RH WIND       PRES   REMARKS
BEAUMONT       CLOUDY    73  70  90 E8        29.98S
BEAUMONT CITY  CLOUDY    73  69  86 E5        29.99F
ORANGE         CLOUDY    71  70  98 E5        30.01S
JASPER         MOCLDY    67  65  94 CALM      30.03F
$$

ACROSS CENTRAL LOUISIANA

CITY           SKY/WX    TMP DP  RH WIND       PRES   REMARKS
LEESVILLE      CLEAR     70  67  91 SE8       30.01S FOG
FULLERTON      FAIR      70  68  93 VRB3      30.00S
ALEXANDRIA INT MOCLDY    71  67  87 SE12      30.01S
ESLER FIELD    CLOUDY    69  68  96 SE6       30.03S
DERIDDER       FAIR      68  67  96 CALM      30.04S
OAKDALE        CLOUDY    70  67  92 CALM      30.03S
OPELOUSAS        N/A     71  69  94 E6        30.03F
$$

ACROSS SOUTHWEST AND SOUTH CENTRAL LOUISIANA

CITY           SKY/WX    TMP DP  RH WIND       PRES   REMARKS
SULPHUR        PTCLDY    72  69  90 E7        30.00F
LAKE CHARLES   CLOUDY    70  68  93 E7        29.99F
CHENNAULT INT    N/A     69  68  98 E7        30.00F
CAMERON PHI    CLOUDY    73  72  94 E10       29.98S
DEQUINCY       MOCLDY    67  66  96 CALM      30.02R
JENNINGS       CLOUDY    72  70  93 E7        30.01F
LAFAYETTE      CLOUDY    74  71  91 E5        30.03F
NEW IBERIA     CLOUDY    74  69  85 E7        30.03S
ABBEVILLE      MOCLDY    72  72 100 E6        30.02F
PATTERSON      CLOUDY    74  72  93 E9        30.02F
SALT POINT       N/A     75  72  90 E8        29.99F
$$

SELECTED SITES ACROSS THE REGION

CITY           SKY/WX    TMP DP  RH WIND       PRES   REMARKS
HOUSTON BUSH   MOCLDY    73  72  96 E7        29.97F
HOUSTON HOBBY  PTCLDY    75  71  87 E3        29.96F
GALVESTON      CLEAR     80  74  81 SE13      29.97S
COLLEGE STAT   PTCLDY    73  70  90 SE7       29.96S
CONROE         CLOUDY    72  72 100 E6        29.98F
HUNTSVILLE     CLOUDY    73  68  84 VRB3      29.98F
LUFKIN         CLOUDY    68  66  93 SE7       30.00F
SHREVEPORT     PTCLDY    66  64  93 SE6       30.01S
MONROE         CLOUDY    70  63  78 VRB3      30.05F
NATCHEZ MS     MOCLDY    71  67  87 SE9       30.06F
BATON ROUGE    CLOUDY    72  68  87 E9        30.05S
N.O. INTL ARPT CLOUDY    75  74  96 E9        30.05F
SLIDELL        CLOUDY    70  67  90 E5        30.07F
$$

MARINE REPORTS

STATION/POSITION TIME  SKY/WX   TEMP    WIND        PRES    VSBY
                                AIR SEA DIR/SP/G
                 (UTC)          (F)     (DEG/KT/KT) (MB)    (MI)
BUOY 30 S HIGH I 0350            80 79  150/ 16/ 19 1014.4
WVE H/P(F/S)=  5/ 7

SEA RIM ST PARK  0500            77     140/  8/ 11 1015.7F
PORT ARTHUR      0436            73 76   80/  4/  7 1015.7R
SABINE PASS N    0436            78 77  130/  8/ 10 1016.8R
TEXAS POINT      NOT AVBL
CALCASIEU PASS   0436            73 76  100/  8/ 10 1014.1F
LK CHARLES BEACH 0436            70 78              1015.4F
MARSH ISLAND     0400            76                   N/A
FRESH WATER LOCK 0436            75 74   80/  7/ 12 1016.2S
AMERADA PASS     0436            75 77   80/  9/ 12 1016.2F
$$




USA.gov is the U.S. government's official web portal to all federal, state and local government web resources and services.